Skip Page Navigation
NASA JPL Caltech
NASA Logo - Jet Propulsion Laboratory + View the NASA Portal
+ Center for Near-Earth Object Studies
JPL Home Earth Solar System Stars & Galaxies Technology
JPL Solar System Dynamics
BODIES ORBITS EPHEMERIDES TOOLS PHYSICAL DATA DISCOVERY FAQ SITE MAP
IMPORTANT: The SSD Announcement email list is now available. Major changes are coming in the near future, including possible hostname and/or URL changes. To be notified of such changes, subscribe to this email list.

Please visit this page for more details.


JPL Small-Body Database Browser
Search: [ help ]  
97650 (2000 FN2)
Classification: Main-belt Asteroid          SPK-ID: 2097650
Ephemeris | Orbit Diagram | Orbital Elements | Mission Design | Physical Parameters | Discovery Circumstances | Close-Approach Data ]

[ show orbit diagram ]
Orbital Elements at Epoch 2458600.5 (2019-Apr-27.0) TDB
Reference: JPL 22 (heliocentric ecliptic J2000)
 Element Value Uncertainty (1-sigma)   Units 
e .1374811599769585 4.0652e-08  
a 3.159050096184844 2.304e-08 au
q 2.724740224536029 1.2708e-07 au
i 5.581446583297526 5.4668e-06 deg
node 184.6751413598391 4.4052e-05 deg
peri 73.61771905725797 4.7968e-05 deg
M 97.4677521979897 1.9486e-05 deg
tp 2458045.246063637098
(2017-Oct-18.74606364)
0.00010975 TDB
period 2050.8466911661
5.61
2.2436e-05
6.143e-08
d
yr
n .1755372556859947 1.9204e-09 deg/d
Q 3.593359967833659 2.6207e-08 au
  Orbit Determination Parameters
   # obs. used (total)      770  
   data-arc span      7178 days (19.65 yr)  
   first obs. used      2000-03-25  
   last obs. used      2019-11-19  
   planetary ephem.      DE431  
   SB-pert. ephem.      SB431-N16  
   condition code      0  
   norm. resid. RMS      .53315  
   source      ORB  
   producer      Otto Matic  
   solution date      2019-Dec-14 08:29:05  

Additional Information
 Earth MOID = 1.71637 au 
 Jupiter MOID = 1.48697 au 
 T_jup = 3.183 
[ show covariance matrix ]

Ephemeris | Orbit Diagram | Orbital Elements | Mission Design | Physical Parameters | Discovery Circumstances | Close-Approach Data ]

Physical Parameter Table
Parameter Symbol Value Units Sigma Reference Notes
absolute magnitude H 14.5   n/a MPO449596  
diameter diameter 5.248 km 0.712 urn:nasa:pds:neowise_diameters_albedos::2.0[mainbelt] (http://adsabs.harvard.edu/abs/2011ApJ...741...68M)  
geometric albedo albedo 0.122   0.019 urn:nasa:pds:neowise_diameters_albedos::2.0[mainbelt] (http://adsabs.harvard.edu/abs/2011ApJ...741...68M)  

97650 (2000 FN2)          Discovered 2000-Mar-25 by Spacewatch at Kitt Peak
Reference: 20050224/Numbers.arcLast Updated: 2005-02-28

[ show close-approach data ]
Alternate Designations
 2000 FN2 = 2001 PY59 
Ephemeris | Orbit Diagram | Orbital Elements | Mission Design | Physical Parameters | Discovery Circumstances | Close-Approach Data ]
ABOUT SSD CREDITS/AWARDS PRIVACY/COPYRIGHT GLOSSARY LINKS
FirstGov 2020-Jan-27 06:17 UT
(server date/time)  
NASA Home Page
Site Manager:   Ryan S. Park
Webmaster  Alan B. Chamberlin